Year,Month,Day,Hour,Minute,Value (Times are PST for temperature in C)
2009,07,03,00,00,15.90
2009,07,03,00,01,15.90
2009,07,03,00,02,15.80
2009,07,03,00,03,15.80
2009,07,03,00,04,15.80
2009,07,03,00,05,15.80
2009,07,03,00,06,15.70
2009,07,03,00,07,15.70
2009,07,03,00,08,15.70
2009,07,03,00,09,15.70
2009,07,03,00,10,15.60
2009,07,03,00,11,15.60
2009,07,03,00,12,15.60
2009,07,03,00,13,15.50
2009,07,03,00,14,15.50
2009,07,03,00,15,15.40
2009,07,03,00,16,15.40
2009,07,03,00,17,15.40
2009,07,03,00,18,15.40
2009,07,03,00,19,15.40
2009,07,03,00,20,15.40
2009,07,03,00,21,15.40
2009,07,03,00,22,15.30
2009,07,03,00,23,15.30
2009,07,03,00,24,15.30
2009,07,03,00,25,15.30
2009,07,03,00,26,15.30
2009,07,03,00,27,15.30
2009,07,03,00,28,15.30
2009,07,03,00,29,15.30
2009,07,03,00,30,15.30
2009,07,03,00,31,15.30
2009,07,03,00,32,15.20
2009,07,03,00,33,15.20
2009,07,03,00,34,15.10
2009,07,03,00,35,15.00
2009,07,03,00,36,15.00
2009,07,03,00,37,15.00
2009,07,03,00,38,15.00
2009,07,03,00,39,15.00
2009,07,03,00,40,14.90
2009,07,03,00,41,14.80
2009,07,03,00,42,14.80
2009,07,03,00,43,14.70
2009,07,03,00,44,14.70
2009,07,03,00,45,14.60
2009,07,03,00,46,14.60
2009,07,03,00,47,14.60
2009,07,03,00,48,14.60
2009,07,03,00,49,14.50
2009,07,03,00,50,14.50
2009,07,03,00,51,14.50
2009,07,03,00,52,14.50
2009,07,03,00,53,14.40
2009,07,03,00,54,14.40
2009,07,03,00,55,14.40
2009,07,03,00,56,14.40
2009,07,03,00,57,14.40
2009,07,03,00,58,14.40
2009,07,03,00,59,14.40
2009,07,03,01,00,14.40
2009,07,03,01,01,14.40
2009,07,03,01,02,14.40
2009,07,03,01,03,14.40
2009,07,03,01,04,14.40
2009,07,03,01,05,14.40
2009,07,03,01,06,14.40
2009,07,03,01,07,14.40
2009,07,03,01,08,14.50
2009,07,03,01,09,14.50
2009,07,03,01,10,14.50
2009,07,03,01,11,14.50
2009,07,03,01,12,14.50
2009,07,03,01,13,14.50
2009,07,03,01,14,14.50
2009,07,03,01,15,14.50
2009,07,03,01,16,14.50
2009,07,03,01,17,14.50
2009,07,03,01,18,14.50
2009,07,03,01,19,14.50
2009,07,03,01,20,14.50
2009,07,03,01,21,14.40
2009,07,03,01,22,14.40
2009,07,03,01,23,14.40
2009,07,03,01,24,14.40
2009,07,03,01,25,14.40
2009,07,03,01,26,14.30
2009,07,03,01,27,14.30
2009,07,03,01,28,14.30
2009,07,03,01,29,14.30
2009,07,03,01,30,14.30
2009,07,03,01,31,14.30
2009,07,03,01,32,14.30
2009,07,03,01,33,14.30
2009,07,03,01,34,14.20
2009,07,03,01,35,14.20
2009,07,03,01,36,14.20
2009,07,03,01,37,14.20
2009,07,03,01,38,14.20
2009,07,03,01,39,14.20
2009,07,03,01,40,14.20
2009,07,03,01,41,14.20
2009,07,03,01,42,14.20
2009,07,03,01,43,14.20
2009,07,03,01,44,14.20
2009,07,03,01,45,14.20
2009,07,03,01,46,14.20
2009,07,03,01,47,14.20
2009,07,03,01,48,14.10
2009,07,03,01,49,14.10
2009,07,03,01,50,14.10
2009,07,03,01,51,14.10
2009,07,03,01,52,14.10
2009,07,03,01,53,14.10
2009,07,03,01,54,14.10
2009,07,03,01,55,14.10
2009,07,03,01,56,14.10
2009,07,03,01,57,14.10
2009,07,03,01,58,14.10
2009,07,03,01,59,14.10
2009,07,03,02,00,14.00
2009,07,03,02,01,14.00
2009,07,03,02,02,14.00
2009,07,03,02,03,14.00
2009,07,03,02,04,13.90
2009,07,03,02,05,13.90
2009,07,03,02,06,13.90
2009,07,03,02,07,13.90
2009,07,03,02,08,13.90
2009,07,03,02,09,13.90
2009,07,03,02,10,13.90
2009,07,03,02,11,13.90
2009,07,03,02,12,13.90
2009,07,03,02,13,13.90
2009,07,03,02,14,13.90
2009,07,03,02,15,13.90
2009,07,03,02,16,13.90
2009,07,03,02,17,13.80
2009,07,03,02,18,13.80
2009,07,03,02,19,13.80
2009,07,03,02,20,13.80
2009,07,03,02,21,13.80
2009,07,03,02,22,13.70
2009,07,03,02,23,13.70
2009,07,03,02,24,13.70
2009,07,03,02,25,13.70
2009,07,03,02,26,13.70
2009,07,03,02,27,13.70
2009,07,03,02,28,13.70
2009,07,03,02,29,13.70
2009,07,03,02,30,13.70
2009,07,03,02,31,13.70
2009,07,03,02,32,13.70
2009,07,03,02,33,13.70
2009,07,03,02,34,13.60
2009,07,03,02,35,13.60
2009,07,03,02,36,13.60
2009,07,03,02,37,13.60
2009,07,03,02,38,13.60
2009,07,03,02,39,13.60
2009,07,03,02,40,13.60
2009,07,03,02,41,13.60
2009,07,03,02,42,13.60
2009,07,03,02,43,13.60
2009,07,03,02,44,13.60
2009,07,03,02,45,13.60
2009,07,03,02,46,13.60
2009,07,03,02,47,13.60
2009,07,03,02,48,13.60
2009,07,03,02,49,13.60
2009,07,03,02,50,13.70
2009,07,03,02,51,13.70
2009,07,03,02,52,13.70
2009,07,03,02,53,13.80
2009,07,03,02,54,13.80
2009,07,03,02,55,13.90
2009,07,03,02,56,13.90
2009,07,03,02,57,14.00
2009,07,03,02,58,14.00
2009,07,03,02,59,14.10
2009,07,03,03,00,14.10
2009,07,03,03,01,14.20
2009,07,03,03,02,14.20
2009,07,03,03,03,14.20
2009,07,03,03,04,14.30
2009,07,03,03,05,14.30
2009,07,03,03,06,14.30
2009,07,03,03,07,14.30
2009,07,03,03,08,14.30
2009,07,03,03,09,14.30
2009,07,03,03,10,14.30
2009,07,03,03,11,14.30
2009,07,03,03,12,14.40
2009,07,03,03,13,14.40
2009,07,03,03,14,14.40
2009,07,03,03,15,14.40
2009,07,03,03,16,14.40
2009,07,03,03,17,14.40
2009,07,03,03,18,14.40
2009,07,03,03,19,14.30
2009,07,03,03,20,14.30
2009,07,03,03,21,14.30
2009,07,03,03,22,14.30
2009,07,03,03,23,14.30
2009,07,03,03,24,14.30
2009,07,03,03,25,14.30
2009,07,03,03,26,14.30
2009,07,03,03,27,14.30
2009,07,03,03,28,14.30
2009,07,03,03,29,14.30
2009,07,03,03,30,14.30
2009,07,03,03,31,14.30
2009,07,03,03,32,14.30
2009,07,03,03,33,14.30
2009,07,03,03,34,14.30
2009,07,03,03,35,14.30
2009,07,03,03,36,14.30
2009,07,03,03,37,14.40
2009,07,03,03,38,14.40
2009,07,03,03,39,14.40
2009,07,03,03,40,14.40
2009,07,03,03,41,14.40
2009,07,03,03,42,14.40
2009,07,03,03,43,14.40
2009,07,03,03,44,14.40
2009,07,03,03,45,14.30
2009,07,03,03,46,14.30
2009,07,03,03,47,14.30
2009,07,03,03,48,14.30
2009,07,03,03,49,14.30
2009,07,03,03,50,14.30
2009,07,03,03,51,14.20
2009,07,03,03,52,14.20
2009,07,03,03,53,14.20
2009,07,03,03,54,14.20
2009,07,03,03,55,14.30
2009,07,03,03,56,14.20
2009,07,03,03,57,14.30
2009,07,03,03,58,14.20
2009,07,03,03,59,14.20
2009,07,03,04,00,14.20
2009,07,03,04,01,14.20
2009,07,03,04,02,14.20
2009,07,03,04,03,14.20
2009,07,03,04,04,14.20
2009,07,03,04,05,14.10
2009,07,03,04,06,14.10
2009,07,03,04,07,14.10
2009,07,03,04,08,14.10
2009,07,03,04,09,14.10
2009,07,03,04,10,14.10
2009,07,03,04,11,14.00
2009,07,03,04,12,14.00
2009,07,03,04,13,14.00
2009,07,03,04,14,14.00
2009,07,03,04,15,13.90
2009,07,03,04,16,13.90
2009,07,03,04,17,13.90
2009,07,03,04,18,13.90
2009,07,03,04,19,13.90
2009,07,03,04,20,13.90
2009,07,03,04,21,13.90
2009,07,03,04,22,13.90
2009,07,03,04,23,13.80
2009,07,03,04,24,13.80
2009,07,03,04,25,13.90
2009,07,03,04,26,13.90
2009,07,03,04,27,13.90
2009,07,03,04,28,14.00
2009,07,03,04,29,14.10
2009,07,03,04,30,14.10
2009,07,03,04,31,14.20
2009,07,03,04,32,14.30
2009,07,03,04,33,14.30
2009,07,03,04,34,14.30
2009,07,03,04,35,14.30
2009,07,03,04,36,14.30
2009,07,03,04,37,14.30
2009,07,03,04,38,14.30
2009,07,03,04,39,14.20
2009,07,03,04,40,14.20
2009,07,03,04,41,14.20
2009,07,03,04,42,14.10
2009,07,03,04,43,14.10
2009,07,03,04,44,14.00
2009,07,03,04,45,14.00
2009,07,03,04,46,13.90
2009,07,03,04,47,13.90
2009,07,03,04,48,13.90
2009,07,03,04,49,13.80
2009,07,03,04,50,13.80
2009,07,03,04,51,13.80
2009,07,03,04,52,13.70
2009,07,03,04,53,13.70
2009,07,03,04,54,13.70
2009,07,03,04,55,13.70
2009,07,03,04,56,13.60
2009,07,03,04,57,13.60
2009,07,03,04,58,13.60
2009,07,03,04,59,13.60
2009,07,03,05,00,13.60
2009,07,03,05,01,13.60
2009,07,03,05,02,13.60
2009,07,03,05,03,13.60
2009,07,03,05,04,13.60
2009,07,03,05,05,13.60
2009,07,03,05,06,13.60
2009,07,03,05,07,13.60
2009,07,03,05,08,13.60
2009,07,03,05,09,13.60
2009,07,03,05,10,13.60
2009,07,03,05,11,13.60
2009,07,03,05,12,13.60
2009,07,03,05,13,13.60
2009,07,03,05,14,13.60
2009,07,03,05,15,13.60
2009,07,03,05,16,13.60
2009,07,03,05,17,13.60
2009,07,03,05,18,13.60
2009,07,03,05,19,13.60
2009,07,03,05,20,13.60
2009,07,03,05,21,13.50
2009,07,03,05,22,13.50
2009,07,03,05,23,13.50
2009,07,03,05,24,13.40
2009,07,03,05,25,13.40
2009,07,03,05,26,13.40
2009,07,03,05,27,13.30
2009,07,03,05,28,13.30
2009,07,03,05,29,13.30
2009,07,03,05,30,13.30
2009,07,03,05,31,13.30
2009,07,03,05,32,13.20
2009,07,03,05,33,13.20
2009,07,03,05,34,13.20
2009,07,03,05,35,13.20
2009,07,03,05,36,13.20
2009,07,03,05,37,13.20
2009,07,03,05,38,13.20
2009,07,03,05,39,13.20
2009,07,03,05,40,13.20
2009,07,03,05,41,13.20
2009,07,03,05,42,13.20
2009,07,03,05,43,13.20
2009,07,03,05,44,13.20
2009,07,03,05,45,13.20
2009,07,03,05,46,13.30
2009,07,03,05,47,13.30
2009,07,03,05,48,13.40
2009,07,03,05,49,13.40
2009,07,03,05,50,13.50
2009,07,03,05,51,13.50
2009,07,03,05,52,13.60
2009,07,03,05,53,13.60
2009,07,03,05,54,13.70
2009,07,03,05,55,13.70
2009,07,03,05,56,13.80
2009,07,03,05,57,13.80
2009,07,03,05,58,13.80
2009,07,03,05,59,13.90
2009,07,03,06,00,13.90
2009,07,03,06,01,13.90
2009,07,03,06,02,13.90
2009,07,03,06,03,13.90
2009,07,03,06,04,14.00
2009,07,03,06,05,14.00
2009,07,03,06,06,14.00
2009,07,03,06,07,14.00
2009,07,03,06,08,14.00
2009,07,03,06,09,14.00
2009,07,03,06,10,14.00
2009,07,03,06,11,14.00
2009,07,03,06,12,14.10
2009,07,03,06,13,14.10
2009,07,03,06,14,14.10
2009,07,03,06,15,14.10
2009,07,03,06,16,14.10
2009,07,03,06,17,14.10
2009,07,03,06,18,14.10
2009,07,03,06,19,14.20
2009,07,03,06,20,14.20
2009,07,03,06,21,14.20
2009,07,03,06,22,14.20
2009,07,03,06,23,14.20
2009,07,03,06,24,14.20
2009,07,03,06,25,14.30
2009,07,03,06,26,14.30
2009,07,03,06,27,14.30
2009,07,03,06,28,14.30
2009,07,03,06,29,14.40
2009,07,03,06,30,14.40
2009,07,03,06,31,14.50
2009,07,03,06,32,14.50
2009,07,03,06,33,14.60
2009,07,03,06,34,14.60
2009,07,03,06,35,14.70
2009,07,03,06,36,14.70
2009,07,03,06,37,14.80
2009,07,03,06,38,14.80
2009,07,03,06,39,14.90
2009,07,03,06,40,15.00
2009,07,03,06,41,15.00
2009,07,03,06,42,15.00
2009,07,03,06,43,15.00
2009,07,03,06,44,15.00
2009,07,03,06,45,15.00
2009,07,03,06,46,15.00
2009,07,03,06,47,15.10
2009,07,03,06,48,15.10
2009,07,03,06,49,15.10
2009,07,03,06,50,15.20
2009,07,03,06,51,15.20
2009,07,03,06,52,15.20
2009,07,03,06,53,15.20
2009,07,03,06,54,15.20
2009,07,03,06,55,15.20
2009,07,03,06,56,15.30
2009,07,03,06,57,15.30
2009,07,03,06,58,15.30
2009,07,03,06,59,15.40
2009,07,03,07,00,15.40
2009,07,03,07,01,15.40
2009,07,03,07,02,15.50
2009,07,03,07,03,15.50
2009,07,03,07,04,15.60
2009,07,03,07,05,15.70
2009,07,03,07,06,15.70
2009,07,03,07,07,15.80
2009,07,03,07,08,15.90
2009,07,03,07,09,15.90
2009,07,03,07,10,15.90
2009,07,03,07,11,15.90
2009,07,03,07,12,16.00
2009,07,03,07,13,16.00
2009,07,03,07,14,16.00
2009,07,03,07,15,16.00
2009,07,03,07,16,16.00
2009,07,03,07,17,16.10
2009,07,03,07,18,16.10
2009,07,03,07,19,16.10
2009,07,03,07,20,16.10
2009,07,03,07,21,16.10
2009,07,03,07,22,16.10
2009,07,03,07,23,16.10
2009,07,03,07,24,16.10
2009,07,03,07,25,16.10
2009,07,03,07,26,16.10
2009,07,03,07,27,16.20
2009,07,03,07,28,16.20
2009,07,03,07,29,16.30
2009,07,03,07,30,16.30
2009,07,03,07,31,16.40
2009,07,03,07,32,16.40
2009,07,03,07,33,16.50
2009,07,03,07,34,16.60
2009,07,03,07,35,16.60
2009,07,03,07,36,16.70
2009,07,03,07,37,16.70
2009,07,03,07,38,16.70
2009,07,03,07,39,16.80
2009,07,03,07,40,16.80
2009,07,03,07,41,16.80
2009,07,03,07,42,16.90
2009,07,03,07,43,16.90
2009,07,03,07,44,17.00
2009,07,03,07,45,17.00
2009,07,03,07,46,17.10
2009,07,03,07,47,17.10
2009,07,03,07,48,17.20
2009,07,03,07,49,17.20
2009,07,03,07,50,17.30
2009,07,03,07,51,17.40
2009,07,03,07,52,17.40
2009,07,03,07,53,17.50
2009,07,03,07,54,17.60
2009,07,03,07,55,17.60
2009,07,03,07,56,17.70
2009,07,03,07,57,17.80
2009,07,03,07,58,17.80
2009,07,03,07,59,17.90
2009,07,03,08,00,17.90
2009,07,03,08,01,18.00
2009,07,03,08,02,18.10
2009,07,03,08,03,18.10
2009,07,03,08,04,18.10
2009,07,03,08,05,18.20
2009,07,03,08,06,18.20
2009,07,03,08,07,18.30
2009,07,03,08,08,18.40
2009,07,03,08,09,18.50
2009,07,03,08,10,18.50
2009,07,03,08,11,18.60
2009,07,03,08,12,18.70
2009,07,03,08,13,18.80
2009,07,03,08,14,18.90
2009,07,03,08,15,19.00
2009,07,03,08,16,19.00
2009,07,03,08,17,19.10
2009,07,03,08,18,19.10
2009,07,03,08,19,19.10
2009,07,03,08,20,19.10
2009,07,03,08,21,19.20
2009,07,03,08,22,19.20
2009,07,03,08,23,19.20
2009,07,03,08,24,19.30
2009,07,03,08,25,19.30
2009,07,03,08,26,19.30
2009,07,03,08,27,19.40
2009,07,03,08,28,19.40
2009,07,03,08,29,19.40
2009,07,03,08,30,19.50
2009,07,03,08,31,19.50
2009,07,03,08,32,19.60
2009,07,03,08,33,19.60
2009,07,03,08,34,19.60
2009,07,03,08,35,19.70
2009,07,03,08,36,19.70
2009,07,03,08,37,19.80
2009,07,03,08,38,19.80
2009,07,03,08,39,19.80
2009,07,03,08,40,19.90
2009,07,03,08,41,19.90
2009,07,03,08,42,19.90
2009,07,03,08,43,20.00
2009,07,03,08,44,20.00
2009,07,03,08,45,20.10
2009,07,03,08,46,20.10
2009,07,03,08,47,20.10
2009,07,03,08,48,20.20
2009,07,03,08,49,20.30
2009,07,03,08,50,20.40
2009,07,03,08,51,20.50
2009,07,03,08,52,20.70
2009,07,03,08,53,20.80
2009,07,03,08,54,20.90
2009,07,03,08,55,21.00
2009,07,03,08,56,21.00
2009,07,03,08,57,21.00
2009,07,03,08,58,21.00
2009,07,03,08,59,21.10
2009,07,03,09,00,21.20
2009,07,03,09,01,21.30
2009,07,03,09,02,21.30
2009,07,03,09,03,21.30
2009,07,03,09,04,21.30
2009,07,03,09,05,21.30
2009,07,03,09,06,21.40
2009,07,03,09,07,21.50
2009,07,03,09,08,21.50
2009,07,03,09,09,21.50
2009,07,03,09,10,21.50
2009,07,03,09,11,21.50
2009,07,03,09,12,21.50
2009,07,03,09,13,21.60
2009,07,03,09,14,21.60
2009,07,03,09,15,21.50
2009,07,03,09,16,21.50
2009,07,03,09,17,21.40
2009,07,03,09,18,21.40
2009,07,03,09,19,21.50
2009,07,03,09,20,21.60
2009,07,03,09,21,21.60
2009,07,03,09,22,21.60
2009,07,03,09,23,21.40
2009,07,03,09,24,21.30
2009,07,03,09,25,21.30
2009,07,03,09,26,21.20
2009,07,03,09,27,21.20
2009,07,03,09,28,21.20
2009,07,03,09,29,21.20
2009,07,03,09,30,21.20
2009,07,03,09,31,21.40
2009,07,03,09,32,21.50
2009,07,03,09,33,21.50
2009,07,03,09,34,21.50
2009,07,03,09,35,21.60
2009,07,03,09,36,21.50
2009,07,03,09,37,21.50
2009,07,03,09,38,21.40
2009,07,03,09,39,21.30
2009,07,03,09,40,21.20
2009,07,03,09,41,21.10
2009,07,03,09,42,21.10
2009,07,03,09,43,21.20
2009,07,03,09,44,21.10
2009,07,03,09,45,21.10
2009,07,03,09,46,21.00
2009,07,03,09,47,20.90
2009,07,03,09,48,20.80
2009,07,03,09,49,20.60
2009,07,03,09,50,20.50
2009,07,03,09,51,20.40
2009,07,03,09,52,20.30
2009,07,03,09,53,20.30
2009,07,03,09,54,20.20
2009,07,03,09,55,20.20
2009,07,03,09,56,20.30
2009,07,03,09,57,20.20
2009,07,03,09,58,20.20
2009,07,03,09,59,20.20
2009,07,03,10,00,20.20
2009,07,03,10,01,20.20
2009,07,03,10,02,20.30
2009,07,03,10,03,20.30
2009,07,03,10,04,20.50
2009,07,03,10,05,20.60
2009,07,03,10,06,20.60
2009,07,03,10,07,20.60
2009,07,03,10,08,20.50
2009,07,03,10,09,20.40
2009,07,03,10,10,20.40
2009,07,03,10,11,20.30
2009,07,03,10,12,20.40
2009,07,03,10,13,20.40
2009,07,03,10,14,20.40
2009,07,03,10,15,20.50
2009,07,03,10,16,20.50
2009,07,03,10,17,20.50
2009,07,03,10,18,20.50
2009,07,03,10,19,20.50
2009,07,03,10,20,20.70
2009,07,03,10,21,20.70
2009,07,03,10,22,20.60
2009,07,03,10,23,20.60
2009,07,03,10,24,20.50
2009,07,03,10,25,20.50
2009,07,03,10,26,20.40
2009,07,03,10,27,20.50
2009,07,03,10,28,20.50
2009,07,03,10,29,20.60
2009,07,03,10,30,20.70
2009,07,03,10,31,20.80
2009,07,03,10,32,20.90
2009,07,03,10,33,20.90
2009,07,03,10,34,20.90
2009,07,03,10,35,21.00
2009,07,03,10,36,20.90
2009,07,03,10,37,20.90
2009,07,03,10,38,20.80
2009,07,03,10,39,20.80
2009,07,03,10,40,20.90
2009,07,03,10,41,20.80
2009,07,03,10,42,20.80
2009,07,03,10,43,20.90
2009,07,03,10,44,20.90
2009,07,03,10,45,20.90
2009,07,03,10,46,21.00
2009,07,03,10,47,21.10
2009,07,03,10,48,21.20
2009,07,03,10,49,21.20
2009,07,03,10,50,21.20
2009,07,03,10,51,21.10
2009,07,03,10,52,21.10
2009,07,03,10,53,21.10
2009,07,03,10,54,21.10
2009,07,03,10,55,21.20
2009,07,03,10,56,21.30
2009,07,03,10,57,21.40
2009,07,03,10,58,21.40
2009,07,03,10,59,21.40
2009,07,03,11,00,21.40
2009,07,03,11,01,21.50
2009,07,03,11,02,21.50
2009,07,03,11,03,21.50
2009,07,03,11,04,21.60
2009,07,03,11,05,21.50
2009,07,03,11,06,21.50
2009,07,03,11,07,21.50
2009,07,03,11,08,21.50
2009,07,03,11,09,21.50
2009,07,03,11,10,21.50
2009,07,03,11,11,21.50
2009,07,03,11,12,21.60
2009,07,03,11,13,21.50
2009,07,03,11,14,21.50
2009,07,03,11,15,21.50
2009,07,03,11,16,21.50
2009,07,03,11,17,21.60
2009,07,03,11,18,21.60
2009,07,03,11,19,21.60
2009,07,03,11,20,21.60
2009,07,03,11,21,21.50
2009,07,03,11,22,21.40
2009,07,03,11,23,21.40
2009,07,03,11,24,21.50
2009,07,03,11,25,21.50
2009,07,03,11,26,21.40
2009,07,03,11,27,21.30
2009,07,03,11,28,21.30
2009,07,03,11,29,21.10
2009,07,03,11,30,20.90
2009,07,03,11,31,20.70
2009,07,03,11,32,20.50
2009,07,03,11,33,20.40
2009,07,03,11,34,20.50
2009,07,03,11,35,20.60
2009,07,03,11,36,20.60
2009,07,03,11,37,20.50
2009,07,03,11,38,20.50
2009,07,03,11,39,20.60
2009,07,03,11,40,20.60
2009,07,03,11,41,20.60
2009,07,03,11,42,20.50
2009,07,03,11,43,20.40
2009,07,03,11,44,20.30
2009,07,03,11,45,20.30
2009,07,03,11,46,20.30
2009,07,03,11,47,20.30
2009,07,03,11,48,20.30
2009,07,03,11,49,20.30
2009,07,03,11,50,20.20
2009,07,03,11,51,20.20
2009,07,03,11,52,20.20
2009,07,03,11,53,20.10
2009,07,03,11,54,20.10
2009,07,03,11,55,20.10
2009,07,03,11,56,20.20
2009,07,03,11,57,20.30
2009,07,03,11,58,20.50
2009,07,03,11,59,20.50
2009,07,03,12,00,20.60
2009,07,03,12,01,20.70
2009,07,03,12,02,20.80
2009,07,03,12,03,20.90
2009,07,03,12,04,20.90
2009,07,03,12,05,20.80
2009,07,03,12,06,20.70
2009,07,03,12,07,20.60
2009,07,03,12,08,20.60
2009,07,03,12,09,20.60
2009,07,03,12,10,20.70
2009,07,03,12,11,20.70
2009,07,03,12,12,20.90
2009,07,03,12,13,21.00
2009,07,03,12,14,21.00
2009,07,03,12,15,20.90
2009,07,03,12,16,20.80
2009,07,03,12,17,20.70
2009,07,03,12,18,20.70
2009,07,03,12,19,20.70
2009,07,03,12,20,20.70
2009,07,03,12,21,20.70
2009,07,03,12,22,20.80
2009,07,03,12,23,20.90
2009,07,03,12,24,21.00
2009,07,03,12,25,21.00
2009,07,03,12,26,21.00
2009,07,03,12,27,21.10
2009,07,03,12,28,21.10
2009,07,03,12,29,21.10
2009,07,03,12,30,21.10
2009,07,03,12,31,21.10
2009,07,03,12,32,21.20
2009,07,03,12,33,21.30
2009,07,03,12,34,21.40
2009,07,03,12,35,21.40
2009,07,03,12,36,21.40
2009,07,03,12,37,21.50
2009,07,03,12,38,21.50
2009,07,03,12,39,21.50
2009,07,03,12,40,21.60
2009,07,03,12,41,21.60
2009,07,03,12,42,21.60
2009,07,03,12,43,21.60
2009,07,03,12,44,21.60
2009,07,03,12,45,21.60
2009,07,03,12,46,21.70
2009,07,03,12,47,21.80
2009,07,03,12,48,21.80
2009,07,03,12,49,21.80
2009,07,03,12,50,21.80
2009,07,03,12,51,21.80
2009,07,03,12,52,21.70
2009,07,03,12,53,21.60
2009,07,03,12,54,21.70
2009,07,03,12,55,21.70
2009,07,03,12,56,21.80
2009,07,03,12,57,21.60
2009,07,03,12,58,21.50
2009,07,03,12,59,21.40
2009,07,03,13,00,21.40
2009,07,03,13,01,21.30
2009,07,03,13,02,21.20
2009,07,03,13,03,21.20
2009,07,03,13,04,21.10
2009,07,03,13,05,21.10
2009,07,03,13,06,21.10
2009,07,03,13,07,21.20
2009,07,03,13,08,21.40
2009,07,03,13,09,21.50
2009,07,03,13,10,21.60
2009,07,03,13,11,21.70
2009,07,03,13,12,21.80
2009,07,03,13,13,21.90
2009,07,03,13,14,22.00
2009,07,03,13,15,22.10
2009,07,03,13,16,22.10
2009,07,03,13,17,21.90
2009,07,03,13,18,21.80
2009,07,03,13,19,21.80
2009,07,03,13,20,21.70
2009,07,03,13,21,21.70
2009,07,03,13,22,21.70
2009,07,03,13,23,21.80
2009,07,03,13,24,22.00
2009,07,03,13,25,22.10
2009,07,03,13,26,22.10
2009,07,03,13,27,22.00
2009,07,03,13,28,21.90
2009,07,03,13,29,21.90
2009,07,03,13,30,21.90
2009,07,03,13,31,21.90
2009,07,03,13,32,22.10
2009,07,03,13,33,22.10
2009,07,03,13,34,22.20
2009,07,03,13,35,22.20
2009,07,03,13,36,22.40
2009,07,03,13,37,22.50
2009,07,03,13,38,22.60
2009,07,03,13,39,22.60
2009,07,03,13,40,22.50
2009,07,03,13,41,22.50
2009,07,03,13,42,22.50
2009,07,03,13,43,22.60
2009,07,03,13,44,22.70
2009,07,03,13,45,22.80
2009,07,03,13,46,22.90
2009,07,03,13,47,22.90
2009,07,03,13,48,22.90
2009,07,03,13,49,22.90
2009,07,03,13,50,22.80
2009,07,03,13,51,22.80
2009,07,03,13,52,22.70
2009,07,03,13,53,22.60
2009,07,03,13,54,22.50
2009,07,03,13,55,22.40
2009,07,03,13,56,22.40
2009,07,03,13,57,22.30
2009,07,03,13,58,22.20
2009,07,03,13,59,22.20
2009,07,03,14,00,22.20
2009,07,03,14,01,22.20
2009,07,03,14,02,22.20
2009,07,03,14,03,22.20
2009,07,03,14,04,22.10
2009,07,03,14,05,22.10
2009,07,03,14,06,22.20
2009,07,03,14,07,22.20
2009,07,03,14,08,22.30
2009,07,03,14,09,22.40
2009,07,03,14,10,22.60
2009,07,03,14,11,22.60
2009,07,03,14,12,22.60
2009,07,03,14,13,22.60
2009,07,03,14,14,22.60
2009,07,03,14,15,22.60
2009,07,03,14,16,22.60
2009,07,03,14,17,22.50
2009,07,03,14,18,22.40
2009,07,03,14,19,22.20
2009,07,03,14,20,22.00
2009,07,03,14,21,22.00
2009,07,03,14,22,22.10
2009,07,03,14,23,22.00
2009,07,03,14,24,21.90
2009,07,03,14,25,21.80
2009,07,03,14,26,21.80
2009,07,03,14,27,21.80
2009,07,03,14,28,21.80
2009,07,03,14,29,21.90
2009,07,03,14,30,21.90
2009,07,03,14,31,21.90
2009,07,03,14,32,22.00
2009,07,03,14,33,22.10
2009,07,03,14,34,22.20
2009,07,03,14,35,22.20
2009,07,03,14,36,22.30
2009,07,03,14,37,22.50
2009,07,03,14,38,22.70
2009,07,03,14,39,22.70
2009,07,03,14,40,22.80
2009,07,03,14,41,22.80
2009,07,03,14,42,23.00
2009,07,03,14,43,23.10
2009,07,03,14,44,23.00
2009,07,03,14,45,23.00
2009,07,03,14,46,23.00
2009,07,03,14,47,23.00
2009,07,03,14,48,23.00
2009,07,03,14,49,22.90
2009,07,03,14,50,22.80
2009,07,03,14,51,22.70
2009,07,03,14,52,22.70
2009,07,03,14,53,22.70
2009,07,03,14,54,22.90
2009,07,03,14,55,23.00
2009,07,03,14,56,23.00
2009,07,03,14,57,23.10
2009,07,03,14,58,23.10
2009,07,03,14,59,23.10
2009,07,03,15,00,23.20
2009,07,03,15,01,23.30
2009,07,03,15,02,23.30
2009,07,03,15,03,23.30
2009,07,03,15,04,23.20
2009,07,03,15,05,23.10
2009,07,03,15,06,23.00
2009,07,03,15,07,22.90
2009,07,03,15,08,22.90
2009,07,03,15,09,22.90
2009,07,03,15,10,23.00
2009,07,03,15,11,23.20
2009,07,03,15,12,23.30
2009,07,03,15,13,23.40
2009,07,03,15,14,23.50
2009,07,03,15,15,23.70
2009,07,03,15,16,23.80
2009,07,03,15,17,23.90
2009,07,03,15,18,23.90
2009,07,03,15,19,23.80
2009,07,03,15,20,23.70
2009,07,03,15,21,23.60
2009,07,03,15,22,23.50
2009,07,03,15,23,23.50
2009,07,03,15,24,23.50
2009,07,03,15,25,23.60
2009,07,03,15,26,23.50
2009,07,03,15,27,23.50
2009,07,03,15,28,23.40
2009,07,03,15,29,23.20
2009,07,03,15,30,23.20
2009,07,03,15,31,23.10
2009,07,03,15,32,23.10
2009,07,03,15,33,23.10
2009,07,03,15,34,23.10
2009,07,03,15,35,23.10
2009,07,03,15,36,23.10
2009,07,03,15,37,23.10
2009,07,03,15,38,22.90
2009,07,03,15,39,22.80
2009,07,03,15,40,22.80
2009,07,03,15,41,22.80
2009,07,03,15,42,22.80
2009,07,03,15,43,22.90
2009,07,03,15,44,22.90
2009,07,03,15,45,23.00
2009,07,03,15,46,23.00
2009,07,03,15,47,23.00
2009,07,03,15,48,22.90
2009,07,03,15,49,22.80
2009,07,03,15,50,22.70
2009,07,03,15,51,22.70
2009,07,03,15,52,22.70
2009,07,03,15,53,22.70
2009,07,03,15,54,22.70
2009,07,03,15,55,22.70
2009,07,03,15,56,22.60
2009,07,03,15,57,22.70
2009,07,03,15,58,22.60
2009,07,03,15,59,22.60
2009,07,03,16,00,22.80
2009,07,03,16,01,22.90
2009,07,03,16,02,22.90
2009,07,03,16,03,22.90
2009,07,03,16,04,22.90
2009,07,03,16,05,22.90
2009,07,03,16,06,22.80
2009,07,03,16,07,22.70
2009,07,03,16,08,22.80
2009,07,03,16,09,22.80
2009,07,03,16,10,22.70
2009,07,03,16,11,22.80
2009,07,03,16,12,22.90
2009,07,03,16,13,22.90
2009,07,03,16,14,22.90
2009,07,03,16,15,22.80
2009,07,03,16,16,22.80
2009,07,03,16,17,22.80
2009,07,03,16,18,22.80
2009,07,03,16,19,22.80
2009,07,03,16,20,22.80
2009,07,03,16,21,22.90
2009,07,03,16,22,23.00
2009,07,03,16,23,23.00
2009,07,03,16,24,23.10
2009,07,03,16,25,23.40
2009,07,03,16,26,23.60
2009,07,03,16,27,23.80
2009,07,03,16,28,23.90
2009,07,03,16,29,23.90
2009,07,03,16,30,23.80
2009,07,03,16,31,23.80
2009,07,03,16,32,23.70
2009,07,03,16,33,23.60
2009,07,03,16,34,23.50
2009,07,03,16,35,23.40
2009,07,03,16,36,23.40
2009,07,03,16,37,23.30
2009,07,03,16,38,23.40
2009,07,03,16,39,23.40
2009,07,03,16,40,23.40
2009,07,03,16,41,23.50
2009,07,03,16,42,23.50
2009,07,03,16,43,23.60
2009,07,03,16,44,23.60
2009,07,03,16,45,23.50
2009,07,03,16,46,23.50
2009,07,03,16,47,23.40
2009,07,03,16,48,23.30
2009,07,03,16,49,23.30
2009,07,03,16,50,23.20
2009,07,03,16,51,23.30
2009,07,03,16,52,23.20
2009,07,03,16,53,23.20
2009,07,03,16,54,23.10
2009,07,03,16,55,23.00
2009,07,03,16,56,23.00
2009,07,03,16,57,23.10
2009,07,03,16,58,23.10
2009,07,03,16,59,23.10
2009,07,03,17,00,23.20
2009,07,03,17,01,23.20
2009,07,03,17,02,23.10
2009,07,03,17,03,23.10
2009,07,03,17,04,23.30
2009,07,03,17,05,23.40
2009,07,03,17,06,23.60
2009,07,03,17,07,23.70
2009,07,03,17,08,23.70
2009,07,03,17,09,23.60
2009,07,03,17,10,23.50
2009,07,03,17,11,23.40
2009,07,03,17,12,23.20
2009,07,03,17,13,23.10
2009,07,03,17,14,23.00
2009,07,03,17,15,22.90
2009,07,03,17,16,22.80
2009,07,03,17,17,22.70
2009,07,03,17,18,22.60
2009,07,03,17,19,22.60